Back to catalog

STARLINK-6354

AliveCommunicationsVLEO
NORAD 56784·PAYLOAD·🇺🇸 United States

Launched May 31, 2023 from Vandenberg Space Force Base

Loading…

Next Passes (next 24 hours)

TLE

FreshSource: CelesTrak SupGP

Epoch: Sep 14, 2026, 20:39 UTC

1 56784C 23078T   26257.86090278  .00692510  00000+0  52764-1 0  2576
2 56784  70.0007 207.5771 0003071 266.5918 224.7481 15.01630241    15

Track STARLINK-6354 in real time with AllMySat

Download on the App Store